Time,TemperatureF,DewpointF,PressureIn,WindDirection,WindDirectionDegrees,WindSpeedMPH,WindSpeedGustMPH,Humidity,HourlyPrecipIn,Conditions,Clouds,dailyrainin,SoftwareType,DateUTC
2013-03-01 00:02:00,24.0,18.0,30.10,NNE,21,3.0,6.0,78,0.00,,,0.02,,2013-03-01 06:02:00,
2013-03-01 00:11:00,24.0,18.0,30.10,NNE,14,3.0,6.0,78,0.00,,,0.02,,2013-03-01 06:11:00,
2013-03-01 00:22:00,24.0,18.0,30.10,NNE,14,3.0,6.0,78,0.00,,,0.02,,2013-03-01 06:22:00,
2013-03-01 00:32:00,24.0,18.0,30.10,NNE,14,3.0,6.0,78,0.00,,,0.02,,2013-03-01 06:32:00,
2013-03-01 00:42:00,24.0,18.0,30.10,NNE,14,3.0,6.0,78,0.00,,,0.02,,2013-03-01 06:42:00,
2013-03-01 00:52:00,24.0,18.0,30.10,North,351,5.0,10.0,78,0.00,,,0.02,,2013-03-01 06:52:00,
2013-03-01 01:01:00,24.0,18.0,30.10,North,351,5.0,10.0,78,0.00,,,0.02,,2013-03-01 07:01:00,
2013-03-01 01:11:00,24.0,18.0,30.10,North,351,5.0,10.0,78,0.00,,,0.02,,2013-03-01 07:11:00,
2013-03-01 01:22:00,24.0,18.0,30.10,NE,55,2.0,8.0,78,0.00,,,0.02,,2013-03-01 07:22:00,
2013-03-01 01:32:00,24.0,18.0,30.10,NE,55,2.0,8.0,78,0.00,,,0.02,,2013-03-01 07:32:00,
2013-03-01 01:42:00,24.0,18.0,30.10,NE,55,2.0,8.0,78,0.00,,,0.02,,2013-03-01 07:42:00,
2013-03-01 01:52:00,24.0,18.0,30.10,North,10,8.0,8.0,78,0.00,,,0.02,,2013-03-01 07:52:00,
2013-03-01 02:01:00,24.0,18.0,30.10,NNE,22,1.0,9.0,79,0.00,,,0.02,,2013-03-01 08:01:00,
2013-03-01 02:12:00,24.0,18.0,30.10,NNE,22,1.0,9.0,79,0.00,,,0.02,,2013-03-01 08:12:00,
2013-03-01 02:22:00,23.0,18.0,30.10,NNW,347,7.0,8.0,80,0.00,,,0.02,,2013-03-01 08:22:00,
2013-03-01 02:32:00,23.0,18.0,30.10,NNW,347,7.0,8.0,80,0.00,,,0.02,,2013-03-01 08:32:00,
2013-03-01 02:42:00,23.0,18.0,30.10,NNW,347,7.0,8.0,80,0.00,,,0.02,,2013-03-01 08:42:00,
2013-03-01 02:52:00,23.0,18.0,30.10,NNW,341,3.0,6.0,80,0.00,,,0.02,,2013-03-01 08:52:00,
2013-03-01 03:02:00,23.0,18.0,30.10,NNW,341,3.0,6.0,80,0.00,,,0.02,,2013-03-01 09:02:00,
2013-03-01 03:12:00,23.0,18.0,30.10,NNW,341,3.0,6.0,80,0.00,,,0.02,,2013-03-01 09:12:00,
2013-03-01 03:22:00,23.0,17.0,30.10,NE,47,2.0,6.0,78,0.00,,,0.02,,2013-03-01 09:22:00,
2013-03-01 03:32:00,23.0,17.0,30.10,NNE,26,4.0,6.0,77,0.00,,,0.02,,2013-03-01 09:32:00,
2013-03-01 03:42:00,23.0,17.0,30.10,NNE,26,4.0,6.0,77,0.00,,,0.02,,2013-03-01 09:42:00,
2013-03-01 03:52:00,23.0,17.0,30.10,NNE,22,3.0,8.0,77,0.00,,,0.02,,2013-03-01 09:52:00,
2013-03-01 04:02:00,23.0,17.0,30.10,NNE,14,3.0,8.0,77,0.00,,,0.02,,2013-03-01 10:02:00,
2013-03-01 04:11:00,23.0,17.0,30.10,NNE,14,3.0,8.0,77,0.00,,,0.02,,2013-03-01 10:11:00,
2013-03-01 04:22:00,23.0,17.0,30.10,NNW,348,3.0,8.0,77,0.00,,,0.02,,2013-03-01 10:22:00,
2013-03-01 04:32:00,23.0,17.0,30.10,NE,53,5.0,7.0,78,0.00,,,0.02,,2013-03-01 10:32:00,
2013-03-01 04:42:00,23.0,17.0,30.10,NE,53,5.0,7.0,78,0.00,,,0.02,,2013-03-01 10:42:00,
2013-03-01 04:52:00,23.0,17.0,30.11,NNE,33,5.0,7.0,78,0.00,,,0.02,,2013-03-01 10:52:00,
2013-03-01 05:01:00,23.0,17.0,30.11,North,11,3.0,10.0,78,0.00,,,0.02,,2013-03-01 11:01:00,
2013-03-01 05:11:00,23.0,17.0,30.11,North,11,3.0,10.0,78,0.00,,,0.02,,2013-03-01 11:11:00,
2013-03-01 05:22:00,23.0,17.0,30.11,NNE,21,7.0,9.0,78,0.00,,,0.02,,2013-03-01 11:22:00,
2013-03-01 05:32:00,23.0,17.0,30.11,NNE,15,3.0,9.0,78,0.00,,,0.02,,2013-03-01 11:32:00,
2013-03-01 05:42:00,23.0,17.0,30.11,NNE,15,3.0,9.0,78,0.00,,,0.02,,2013-03-01 11:42:00,
2013-03-01 05:52:00,22.0,16.0,30.13,North,355,3.0,9.0,78,0.00,,,0.02,,2013-03-01 11:52:00,
2013-03-01 06:01:00,22.0,16.0,30.13,North,5,5.0,6.0,78,0.00,,,0.02,,2013-03-01 12:01:00,
2013-03-01 06:11:00,22.0,16.0,30.13,North,5,5.0,6.0,78,0.00,,,0.02,,2013-03-01 12:11:00,
2013-03-01 06:21:00,22.0,16.0,30.13,North,355,4.0,10.0,78,0.00,,,0.02,,2013-03-01 12:21:00,
2013-03-01 06:32:00,22.0,16.0,30.13,ENE,57,4.0,7.0,78,0.00,,,0.02,,2013-03-01 12:32:00,
2013-03-01 06:42:00,22.0,16.0,30.13,ENE,57,4.0,7.0,78,0.00,,,0.02,,2013-03-01 12:42:00,
2013-03-01 06:52:00,22.0,16.0,30.15,NE,46,2.0,7.0,79,0.00,,,0.02,,2013-03-01 12:52:00,
2013-03-01 07:01:00,22.0,16.0,30.15,NE,46,2.0,7.0,79,0.00,,,0.02,,2013-03-01 13:01:00,
2013-03-01 07:11:00,22.0,16.0,30.15,NE,46,2.0,7.0,79,0.00,,,0.02,,2013-03-01 13:11:00,
2013-03-01 07:21:00,22.0,17.0,30.15,NNW,336,3.0,4.0,80,0.00,,,0.02,,2013-03-01 13:21:00,
2013-03-01 07:32:00,22.0,17.0,30.15,NNE,17,2.0,6.0,80,0.00,,,0.02,,2013-03-01 13:32:00,
2013-03-01 07:42:00,22.0,17.0,30.15,NNE,17,2.0,6.0,80,0.00,,,0.02,,2013-03-01 13:42:00,
2013-03-01 07:52:00,22.0,17.0,30.16,NNE,18,3.0,8.0,81,0.00,,,0.02,,2013-03-01 13:52:00,
2013-03-01 08:01:00,22.0,17.0,30.16,ENE,57,3.0,4.0,81,0.00,,,0.02,,2013-03-01 14:01:00,
2013-03-01 08:11:00,22.0,17.0,30.16,ENE,57,3.0,4.0,81,0.00,,,0.02,,2013-03-01 14:11:00,
2013-03-01 08:21:00,22.0,17.0,30.17,ENE,59,4.0,8.0,81,0.01,,,0.03,,2013-03-01 14:21:00,
2013-03-01 08:32:00,22.0,17.0,30.17,North,360,6.0,8.0,81,0.01,,,0.03,,2013-03-01 14:32:00,
2013-03-01 08:41:00,22.0,17.0,30.17,North,360,6.0,8.0,81,0.01,,,0.03,,2013-03-01 14:41:00,
2013-03-01 08:52:00,22.0,17.0,30.18,NE,44,3.0,7.0,81,0.01,,,0.03,,2013-03-01 14:52:00,
2013-03-01 09:01:00,22.0,17.0,30.18,NE,36,6.0,8.0,81,0.01,,,0.03,,2013-03-01 15:01:00,
2013-03-01 09:11:00,22.0,17.0,30.18,NNW,344,11.0,11.0,80,0.01,,,0.04,,2013-03-01 15:11:00,
2013-03-01 09:21:00,22.0,17.0,30.18,NNW,344,11.0,11.0,80,0.01,,,0.04,,2013-03-01 15:21:00,
2013-03-01 09:31:00,22.0,17.0,30.18,NNE,17,4.0,10.0,80,0.01,,,0.04,,2013-03-01 15:31:00,
2013-03-01 09:42:00,22.0,17.0,30.18,NNE,17,4.0,10.0,80,0.01,,,0.04,,2013-03-01 15:42:00,
2013-03-01 09:52:00,22.0,17.0,30.18,NE,42,6.0,10.0,80,0.01,,,0.04,,2013-03-01 15:52:00,
2013-03-01 10:01:00,22.0,17.0,30.18,NNE,25,4.0,10.0,80,0.01,,,0.04,,2013-03-01 16:01:00,
2013-03-01 10:11:00,22.0,17.0,30.18,NNE,25,4.0,10.0,80,0.01,,,0.04,,2013-03-01 16:11:00,
2013-03-01 10:21:00,22.0,17.0,30.18,North,355,7.0,9.0,81,0.01,,,0.05,,2013-03-01 16:21:00,
2013-03-01 10:32:00,22.0,17.0,30.18,North,355,7.0,9.0,81,0.01,,,0.05,,2013-03-01 16:32:00,
2013-03-01 10:41:00,22.0,17.0,30.18,North,355,7.0,9.0,81,0.01,,,0.05,,2013-03-01 16:41:00,
2013-03-01 10:52:00,22.0,17.0,30.20,ENE,63,3.0,10.0,80,0.01,,,0.05,,2013-03-01 16:52:00,
2013-03-01 11:01:00,22.0,17.0,30.20,ENE,61,8.0,10.0,80,0.01,,,0.05,,2013-03-01 17:01:00,
2013-03-01 11:11:00,22.0,17.0,30.20,ENE,61,8.0,10.0,80,0.01,,,0.05,,2013-03-01 17:11:00,
2013-03-01 11:21:00,22.0,17.0,30.20,NNE,21,2.0,10.0,80,0.00,,,0.04,,2013-03-01 17:21:00,
2013-03-01 11:31:00,22.0,17.0,30.20,ENE,61,7.0,9.0,80,0.00,,,0.04,,2013-03-01 17:31:00,
2013-03-01 11:41:00,22.0,16.0,30.20,North,5,3.0,6.0,79,0.00,,,0.04,,2013-03-01 17:41:00,
2013-03-01 11:52:00,22.0,16.0,30.20,North,5,3.0,6.0,79,0.00,,,0.04,,2013-03-01 17:52:00,
2013-03-01 12:01:00,22.0,16.0,30.20,NE,44,7.0,9.0,79,0.00,,,0.04,,2013-03-01 18:01:00,
2013-03-01 12:12:00,22.0,16.0,30.20,NE,44,7.0,9.0,79,0.00,,,0.04,,2013-03-01 18:12:00,
2013-03-01 12:22:00,22.0,16.0,30.20,North,355,6.0,7.0,78,0.01,,,0.05,,2013-03-01 18:22:00,
2013-03-01 12:31:00,22.0,16.0,30.20,North,5,4.0,10.0,77,0.01,,,0.05,,2013-03-01 18:31:00,
2013-03-01 12:41:00,22.0,16.0,30.20,North,5,4.0,10.0,77,0.01,,,0.05,,2013-03-01 18:41:00,
2013-03-01 12:52:00,23.0,17.0,30.20,NE,49,3.0,6.0,77,0.01,,,0.05,,2013-03-01 18:52:00,
2013-03-01 13:01:00,23.0,16.0,30.20,NE,54,11.0,11.0,73,0.01,,,0.05,,2013-03-01 19:01:00,
2013-03-01 13:11:00,23.0,16.0,30.20,NE,54,11.0,11.0,73,0.01,,,0.05,,2013-03-01 19:11:00,
2013-03-01 13:21:00,22.0,16.0,30.19,NNE,27,4.0,10.0,76,0.00,,,0.05,,2013-03-01 19:21:00,
2013-03-01 13:31:00,23.0,17.0,30.19,NE,35,6.0,11.0,76,0.00,,,0.05,,2013-03-01 19:31:00,
2013-03-01 13:42:00,23.0,17.0,30.19,NE,35,6.0,11.0,76,0.00,,,0.05,,2013-03-01 19:42:00,
2013-03-01 13:52:00,23.0,17.0,30.19,NE,42,7.0,8.0,76,0.00,,,0.05,,2013-03-01 19:52:00,
2013-03-01 14:01:00,23.0,16.0,30.19,NE,38,9.0,12.0,75,0.00,,,0.05,,2013-03-01 20:01:00,
2013-03-01 14:11:00,23.0,16.0,30.19,NE,38,9.0,12.0,75,0.00,,,0.05,,2013-03-01 20:11:00,
2013-03-01 14:21:00,23.0,16.0,30.19,NE,39,6.0,13.0,74,0.00,,,0.05,,2013-03-01 20:21:00,
2013-03-01 14:31:00,23.0,15.0,30.19,NE,41,12.0,12.0,72,0.00,,,0.05,,2013-03-01 20:31:00,
2013-03-01 14:41:00,23.0,15.0,30.19,NE,41,12.0,12.0,72,0.00,,,0.05,,2013-03-01 20:41:00,
2013-03-01 14:52:00,23.0,15.0,30.19,NE,49,9.0,10.0,72,0.00,,,0.05,,2013-03-01 20:52:00,
2013-03-01 15:01:00,23.0,15.0,30.19,NE,43,6.0,11.0,72,0.00,,,0.05,,2013-03-01 21:01:00,
2013-03-01 15:11:00,24.0,16.0,30.19,NNW,348,6.0,6.0,71,0.00,,,0.04,,2013-03-01 21:11:00,
2013-03-01 15:21:00,24.0,16.0,30.19,NNW,348,6.0,6.0,71,0.00,,,0.04,,2013-03-01 21:21:00,
2013-03-01 15:31:00,24.0,16.0,30.19,NNE,19,5.0,6.0,72,0.00,,,0.04,,2013-03-01 21:31:00,
2013-03-01 15:41:00,24.0,16.0,30.19,NNE,26,4.0,10.0,71,0.00,,,0.04,,2013-03-01 21:41:00,
2013-03-01 15:52:00,24.0,16.0,30.19,NNE,26,4.0,10.0,71,0.00,,,0.04,,2013-03-01 21:52:00,
2013-03-01 16:01:00,24.0,16.0,30.19,NNW,348,3.0,8.0,72,0.00,,,0.04,,2013-03-01 22:01:00,
2013-03-01 16:11:00,24.0,16.0,30.20,NNE,19,6.0,12.0,72,0.00,,,0.04,,2013-03-01 22:11:00,
2013-03-01 16:21:00,24.0,16.0,30.20,NNE,19,6.0,12.0,72,0.00,,,0.04,,2013-03-01 22:21:00,
2013-03-01 16:31:00,24.0,17.0,30.20,North,10,6.0,8.0,73,0.00,,,0.04,,2013-03-01 22:31:00,
2013-03-01 16:41:00,24.0,17.0,30.20,North,10,6.0,8.0,73,0.00,,,0.04,,2013-03-01 22:41:00,
2013-03-01 16:51:00,24.0,17.0,30.20,NNE,12,2.0,5.0,74,0.00,,,0.04,,2013-03-01 22:51:00,
2013-03-01 17:01:00,24.0,17.0,30.20,North,355,2.0,5.0,74,0.00,,,0.04,,2013-03-01 23:01:00,
2013-03-01 17:11:00,24.0,17.0,30.20,North,355,2.0,5.0,74,0.00,,,0.04,,2013-03-01 23:11:00,
2013-03-01 17:21:00,24.0,17.0,30.22,NNE,13,0.0,3.0,75,0.00,,,0.04,,2013-03-01 23:21:00,
2013-03-01 17:31:00,24.0,17.0,30.22,NNE,13,0.0,3.0,75,0.00,,,0.04,,2013-03-01 23:31:00,
2013-03-01 17:41:00,24.0,17.0,30.22,NNE,13,0.0,3.0,75,0.00,,,0.04,,2013-03-01 23:41:00,
2013-03-01 17:52:00,24.0,18.0,30.22,NE,36,0.0,3.0,76,0.00,,,0.04,,2013-03-01 23:52:00,
2013-03-01 18:01:00,24.0,18.0,30.22,NNW,331,3.0,3.0,76,0.00,,,0.04,,2013-03-02 00:01:00,
2013-03-01 18:11:00,24.0,18.0,30.22,NNW,331,3.0,3.0,76,0.00,,,0.04,,2013-03-02 00:11:00,
2013-03-01 18:21:00,24.0,18.0,30.22,North,9,0.0,3.0,77,0.00,,,0.04,,2013-03-02 00:21:00,
2013-03-01 18:31:00,24.0,18.0,30.22,North,360,0.0,3.0,77,0.00,,,0.04,,2013-03-02 00:31:00,
2013-03-01 18:42:00,24.0,18.0,30.22,North,360,0.0,3.0,77,0.00,,,0.04,,2013-03-02 00:42:00,
2013-03-01 18:52:00,24.0,18.0,30.23,North,360,0.0,2.0,77,0.00,,,0.04,,2013-03-02 00:52:00,
2013-03-01 19:01:00,24.0,18.0,30.23,North,355,1.0,3.0,77,0.00,,,0.04,,2013-03-02 01:01:00,
2013-03-01 19:11:00,24.0,18.0,30.23,North,355,1.0,3.0,77,0.00,,,0.04,,2013-03-02 01:11:00,
2013-03-01 19:21:00,23.0,17.0,30.24,North,360,1.0,3.0,76,0.00,,,0.04,,2013-03-02 01:21:00,
2013-03-01 19:31:00,23.0,17.0,30.24,North,360,1.0,3.0,76,0.00,,,0.04,,2013-03-02 01:31:00,
2013-03-01 19:41:00,23.0,17.0,30.24,North,360,1.0,3.0,76,0.00,,,0.04,,2013-03-02 01:41:00,
2013-03-01 19:52:00,22.0,16.0,30.24,NE,34,0.0,2.0,76,0.00,,,0.04,,2013-03-02 01:52:00,
2013-03-01 20:01:00,22.0,16.0,30.24,NE,34,0.0,2.0,76,0.00,,,0.04,,2013-03-02 02:01:00,
2013-03-01 20:11:00,22.0,16.0,30.24,NE,34,0.0,2.0,76,0.00,,,0.04,,2013-03-02 02:11:00,
2013-03-01 20:21:00,21.0,15.0,30.25,NNE,31,2.0,2.0,77,0.00,,,0.04,,2013-03-02 02:21:00,
2013-03-01 20:32:00,21.0,15.0,30.25,NNE,31,2.0,2.0,77,0.00,,,0.04,,2013-03-02 02:32:00,
2013-03-01 20:42:00,21.0,15.0,30.25,NNE,31,2.0,2.0,77,0.00,,,0.04,,2013-03-02 02:42:00,
2013-03-01 20:52:00,20.0,15.0,30.25,NNE,31,0.0,2.0,80,0.00,,,0.04,,2013-03-02 02:52:00,
2013-03-01 21:01:00,20.0,15.0,30.25,NNE,31,0.0,2.0,80,0.00,,,0.04,,2013-03-02 03:01:00,
2013-03-01 21:11:00,20.0,15.0,30.25,NNE,31,0.0,2.0,80,0.00,,,0.04,,2013-03-02 03:11:00,
2013-03-01 21:21:00,19.0,14.0,30.25,NNE,29,1.0,3.0,81,0.00,,,0.04,,2013-03-02 03:21:00,
2013-03-01 21:32:00,19.0,14.0,30.25,NNE,28,1.0,3.0,81,0.00,,,0.04,,2013-03-02 03:32:00,
2013-03-01 21:42:00,19.0,14.0,30.25,NNE,28,1.0,3.0,81,0.00,,,0.04,,2013-03-02 03:42:00,
2013-03-01 21:52:00,18.0,13.0,30.25,NNW,347,3.0,3.0,82,0.00,,,0.04,,2013-03-02 03:52:00,
2013-03-01 22:01:00,18.0,13.0,30.25,NNE,15,0.0,3.0,82,0.00,,,0.04,,2013-03-02 04:01:00,
2013-03-01 22:11:00,18.0,14.0,30.25,North,5,1.0,3.0,83,0.00,,,0.04,,2013-03-02 04:11:00,
2013-03-01 22:21:00,18.0,14.0,30.25,North,5,1.0,3.0,83,0.00,,,0.04,,2013-03-02 04:21:00,
2013-03-01 22:32:00,18.0,14.0,30.25,North,5,1.0,3.0,83,0.00,,,0.04,,2013-03-02 04:32:00,
2013-03-01 22:42:00,18.0,14.0,30.25,North,5,1.0,3.0,83,0.00,,,0.04,,2013-03-02 04:42:00,
2013-03-01 22:52:00,18.0,13.0,30.24,NNE,24,1.0,4.0,82,0.00,,,0.04,,2013-03-02 04:52:00,
2013-03-01 23:01:00,18.0,12.0,30.24,North,5,2.0,6.0,78,0.00,,,0.04,,2013-03-02 05:01:00,
2013-03-01 23:10:00,18.0,11.0,30.24,NE,44,3.0,6.0,73,0.00,,,0.04,,2013-03-02 05:10:00,
2013-03-01 23:12:00,18.0,12.0,30.24,North,5,2.0,6.0,78,0.00,,,0.04,,2013-03-02 05:12:00,
2013-03-01 23:22:00,18.0,12.0,30.24,North,5,2.0,6.0,78,0.00,,,0.04,,2013-03-02 05:22:00,
2013-03-01 23:32:00,18.0,11.0,30.24,NE,44,3.0,6.0,73,0.00,,,0.04,,2013-03-02 05:32:00,
2013-03-01 23:41:00,18.0,11.0,30.24,NE,44,3.0,6.0,73,0.00,,,0.04,,2013-03-02 05:41:00,
2013-03-01 23:52:00,18.0,11.0,30.24,NE,44,3.0,6.0,73,0.00,,,0.04,,2013-03-02 05:52:00,